Regional Weather Roundup
Issued by NWS

Home | Current Version | Previous Version | Text Only | Print | Product List | Glossary On
Versions: 1 2 3 4 5 6 7 8 9 10 11 12 13 14 15 16 17 18 19 20 21 22 23 24 25 26 27 28 29 30 31 32 33 34 35 36 37 38 39 40 41 42 43 44 45 46 47 48 49 50
000
ASUS43 KTOP 170359
RWRKS

WEATHER ROUNDUP FOR KANSAS
NATIONAL WEATHER SERVICE GOODLAND KS
1100 PM CDT TUE SEP 16 2014

NOTE:  "FAIR" INDICATES FEW OR NO CLOUDS BELOW 12,000 FEET WITH NO
SIGNIFICANT WEATHER AND/OR OBSTRUCTIONS TO VISIBILITY.

KSZ001>006-013>018-027>032-041>047-170500-
NORTHWEST KANSAS

CITY           SKY/WX    TMP DP  RH WIND       PRES   REMARKS
GOODLAND       CLEAR     60  51  72 CALM      30.02F
HAYS           CLEAR     64  59  82 E7        29.97R
HILL CITY      CLEAR     64  60  87 E7        29.97S
RUSSELL        CLEAR     67  62  84 SE8       29.96R
$$

KSZ061>065-074>080-084>089-170500-
SOUTHWEST KANSAS

CITY           SKY/WX    TMP DP  RH WIND       PRES   REMARKS
DODGE CITY     CLEAR     73  59  61 S16       30.00S
ELKHART          N/A     67  57  70 S8          N/A
GARDEN CITY    CLEAR     68  60  75 S8        29.99F
GREAT BEND     CLEAR     70  61  73 S13       29.96F
LIBERAL        CLEAR     66  57  72 S9        30.05F
$$

KSZ066>073-081>083-090>101-170500-
SOUTHEAST KANSAS

CITY           SKY/WX    TMP DP  RH WIND       PRES   REMARKS
CHANUTE        PTCLDY    66  63  90 SE5       30.02F
COFFEYVILLE    CLEAR     67  65  93 CALM      30.02S
HUTCHINSON     CLEAR     68  62  81 SE9       29.99S
NEWTON         CLEAR     66  59  77 S9        30.02F
PARSONS        CLEAR     64  63  96 CALM      30.04R
WICHITA INTL   PTCLDY    69  64  84 S12       30.00F
WICHITA JABRA  CLEAR     67  63  87 S9        30.01S FOG
WICHITA MCCONL PTCLDY    68  68 100 SE10      30.01F
WINFIELD       CLEAR     67  64  90 SE6       30.02F
$$

KSZ007>012-019>026-033>040-048>060-102>105-170500-
NORTHEAST KANSAS

CITY           SKY/WX    TMP DP  RH WIND       PRES   REMARKS
CONCORDIA      CLEAR     59  55  87 E3        29.99F
EMPORIA        PTCLDY    64  61  90 SE5       30.03R
LAWRENCE       CLOUDY    61  58  90 E6        30.04S
MANHATTAN      CLOUDY    67  55  65 E5        30.00F
OLATHE IND     MOCLDY    63  57  81 SE6       30.05S
OLATHE EXE     MOCLDY    62  57  83 SE5       30.04S
SALINA         MOCLDY    68  61  78 SE7       29.97F
TOPEKA BILLARD CLOUDY    65  58  78 NE3       30.03S
TOPEKA FORBES  CLOUDY    63  57  81 SE7       30.03S
$$



USA.gov is the U.S. government's official web portal to all federal, state and local government web resources and services.